RH
18 19 18 19 19 19 20 20 21 23 25 27 29 31 32 33 33 33 34 34 34 35 35 36 36 37 37 37 37 37 37 37 38 38 39 39 39 40 42 43 43 42 41 42 42 43 45 48 51 54 55 56 57 57 58 59 58 57 57 59 64 67 68 70 72 74 74 73 71
20 20 20 20 20 20 20 20 21 22 23 24 26 28 31 34 35 36 36 37 37 37 37 38 38 38 38 38 39 39 39 39 37 38 38 39 38 39 41 43 44 45 47 48 48 48 48 49 51 53 55 57 58 58 58 56 55 55 58 62 67 69 71 72 72 73 73 73 71
21 21 21 21 22 22 23 23 23 24 24 25 26 28 30 33 35 36 37 38 39 39 39 39 39 39 39 39 39 39 40 39 39 38 37 37 37 38 39 40 42 44 46 49 51 52 53 53 54 55 56 58 59 58 56 54 55 57 62 69 69 73 76 77 75 75 74 73 72
23 23 23 23 24 25 25 25 26 27 28 29 30 31 32 33 35 36 38 39 39 40 40 40 40 39 39 39 40 40 40 40 39 38 37 36 37 38 39 39 40 41 43 45 48 51 53 56 58 59 60 60 59 57 55 55 59 62 66 73 73 76 80 82 78 77 77 75 75
26 25 25 25 25 26 26 26 26 27 28 28 29 31 32 34 36 37 39 39 40 40 40 40 40 40 40 40 40 40 40 40 39 38 37 38 39 39 39 40 40 41 41 42 44 47 51 55 58 60 62 64 63 61 60 61 64 67 69 74 78 81 82 81 79 78 78 78 77
27 27 27 26 26 26 26 26 26 26 26 26 27 28 30 32 35 37 38 39 39 39 39 39 39 40 40 40 40 41 41 42 41 41 41 41 40 40 40 42 43 43 42 42 43 45 47 51 54 57 60 62 65 66 68 69 71 72 73 76 79 80 79 78 77 77 77 77 77
27 28 27 27 26 26 26 26 27 27 28 28 28 29 29 30 31 33 34 36 37 38 38 38 39 40 41 42 43 43 43 44 44 44 44 43 43 43 44 44 44 44 44 44 44 45 45 47 50 52 55 59 62 65 69 74 74 74 75 77 77 76 74 73 71 71 73 74 74
27 27 27 27 26 27 27 27 28 28 29 29 30 30 30 30 29 29 30 31 34 36 37 39 40 42 43 45 46 47 47 46 46 46 46 45 46 46 47 46 46 45 45 45 45 45 46 47 48 50 52 56 58 61 64 67 71 75 77 78 77 76 74 73 69 67 67 70 72
27 27 27 27 27 28 28 29 29 29 29 30 30 30 30 30 30 30 29 29 31 34 37 41 42 44 45 47 48 49 48 47 47 47 47 46 47 48 48 47 46 46 45 45 46 46 47 48 49 50 51 54 56 58 60 63 66 71 75 78 78 77 76 75 72 69 66 66 68
28 28 29 29 29 29 30 30 30 30 30 31 30 31 31 31 31 32 32 33 34 35 38 42 45 46 47 47 48 47 46 45 45 45 45 46 48 49 49 48 47 47 46 46 47 48 48 49 50 52 54 56 57 59 60 61 63 65 69 72 74 76 77 76 75 73 70 67 66
30 30 30 31 31 31 31 31 31 31 32 32 32 33 34 35 36 37 37 37 37 38 39 41 42 42 42 41 41 41 41 41 42 43 45 48 50 51 51 50 50 50 49 49 49 49 50 50 52 54 57 60 62 63 63 62 62 63 64 66 69 72 75 77 78 78 76 71 69
32 32 32 32 32 32 32 32 32 33 33 34 35 35 37 38 40 40 40 40 41 41 40 39 39 38 38 37 37 37 37 39 41 44 47 51 53 54 54 54 54 54 53 52 51 52 53 54 54 56 59 63 66 68 67 66 65 64 65 66 68 70 73 77 78 79 78 76 75
34 34 34 34 34 34 34 34 35 35 35 36 37 37 38 39 40 40 41 41 41 41 40 39 38 38 38 39 39 40 41 42 45 48 51 53 55 56 57 58 59 58 58 55 55 56 57 58 58 60 63 67 69 71 71 71 70 69 69 69 71 72 73 74 76 76 77 79 78
35 35 35 35 35 35 35 34 35 35 35 35 36 36 37 37 37 37 37 36 35 35 35 34 35 36 37 38 40 43 46 49 51 52 53 54 56 57 58 59 61 61 61 59 58 58 60 62 64 67 70 72 74 75 75 75 75 74 74 74 75 75 76 76 77 77 77 78 78
34 34 34 34 33 33 33 32 32 32 32 32 32 32 32 32 31 30 30 29 29 29 29 30 31 32 33 35 39 43 47 51 54 55 56 56 57 57 58 59 60 61 62 62 63 66 69 72 73 74 76 77 78 78 78 79 79 79 78 78 79 79 79 79 80 80 79 78 79
33 33 32 32 31 31 30 29 29 29 29 30 30 29 29 28 27 26 26 26 27 28 29 29 30 32 33 36 40 44 48 53 56 57 58 59 60 61 61 60 60 60 61 63 71 77 81 82 81 80 79 79 79 80 80 81 83 82 81 81 81 82 82 83 84 84 84 82 83
32 32 31 30 29 28 28 28 29 29 29 29 29 28 27 26 26 26 27 28 29 30 31 32 33 35 37 40 44 47 51 54 57 58 60 62 64 65 65 63 61 60 61 65 75 80 83 83 82 81 80 80 80 80 80 81 83 84 83 82 83 84 86 86 87 87 86 85 84
32 31 31 30 29 29 29 29 30 30 30 30 29 28 27 26 27 27 29 30 31 32 33 34 35 37 40 43 46 49 52 54 56 57 59 62 66 69 70 68 64 62 62 66 73 78 81 82 82 81 80 80 80 79 79 81 83 84 84 84 85 87 88 88 88 88 87 86 84
32 32 31 30 30 30 31 31 31 30 30 29 28 27 27 27 28 30 31 33 34 34 35 35 37 38 40 43 45 48 51 53 55 55 57 59 65 70 72 72 68 65 64 66 71 77 81 83 82 81 81 80 79 79 78 80 83 85 85 86 87 87 87 88 88 88 87 86 83
33 33 32 31 31 31 31 32 31 30 30 29 28 28 29 29 31 33 34 35 36 36 37 37 38 39 40 42 44 47 50 53 55 56 57 59 63 68 73 76 74 72 71 72 75 79 82 83 82 82 81 80 79 78 78 80 84 85 86 87 87 87 87 88 87 87 86 85 82
35 34 33 33 33 33 32 32 31 31 30 30 30 30 31 33 34 36 36 37 38 38 38 39 40 41 42 43 46 49 52 55 58 60 60 60 63 67 73 79 81 81 80 80 81 82 82 82 81 80 78 78 77 78 80 83 84 85 86 88 88 87 87 87 87 86 86 85 83
35 35 34 34 34 34 34 33 32 32 31 31 32 32 33 34 36 37 38 38 39 40 40 41 42 43 44 46 49 51 54 57 59 61 62 62 63 66 70 77 81 84 85 85 84 83 83 81 79 77 75 75 77 80 82 84 84 86 87 88 86 85 84 85 86 86 86 86 85
36 36 36 36 36 35 35 34 34 33 32 32 33 33 34 35 36 37 38 39 40 41 42 43 43 45 46 48 50 52 55 57 58 60 61 63 64 65 68 72 76 81 84 86 86 86 84 83 80 78 76 77 80 82 84 83 86 88 87 87 85 84 84 85 85 86 86 86 85
38 38 37 37 37 37 37 36 35 34 33 33 33 34 35 35 37 38 39 40 41 42 43 44 45 47 48 50 52 53 55 56 58 59 60 62 63 65 66 68 71 75 79 82 85 86 85 84 81 80 79 81 85 86 86 87 88 87 87 86 86 86 86 86 86 86 86 86 85
40 40 40 40 39 39 39 38 36 35 34 34 34 34 35 35 37 38 39 41 42 43 44 46 47 49 51 52 53 55 56 57 58 58 59 60 62 64 66 69 70 72 73 76 80 82 84 84 84 84 85 85 84 85 87 87 87 87 87 86 87 87 87 87 86 86 86 85 84
44 43 42 42 42 41 41 40 38 36 35 35 34 35 35 36 37 38 40 41 43 44 45 47 48 50 52 53 55 56 57 58 58 59 59 60 62 64 66 69 71 73 74 76 79 81 84 86 87 87 87 87 84 83 84 85 86 87 86 86 85 85 86 86 86 85 84 83 81
46 46 45 44 44 44 43 42 40 39 37 36 36 36 36 37 38 40 41 43 44 45 46 47 49 50 52 53 55 56 57 58 59 60 60 61 63 64 66 68 71 74 77 79 80 82 84 86 87 87 87 88 87 87 86 86 86 86 86 86 85 85 85 85 84 83 82 81 78
48 47 46 46 46 46 45 45 43 41 39 37 37 37 38 39 41 42 43 44 45 46 47 48 49 50 51 53 54 55 56 57 58 59 61 62 64 65 66 68 71 75 78 81 82 84 86 87 87 87 86 85 85 85 85 86 86 86 86 86 86 85 85 84 83 81 79 77 74
48 47 47 46 47 47 47 46 44 42 41 39 39 39 40 42 44 45 46 47 47 48 49 49 50 51 52 54 55 56 56 57 58 59 60 62 65 67 68 70 72 76 79 82 84 86 87 87 86 84 83 83 82 82 82 82 84 85 86 86 86 85 84 82 80 78 76 74 73
48 48 47 47 48 48 48 47 46 45 43 42 41 42 43 45 47 49 50 50 50 50 50 51 52 53 54 55 56 57 57 58 58 59 60 62 64 67 69 71 73 76 79 81 82 82 82 82 81 81 82 82 81 80 80 80 82 83 84 84 83 82 81 79 77 76 74 73 72
50 50 49 49 50 50 50 50 49 48 47 46 46 47 48 50 51 52 53 54 53 53 52 52 53 54 55 57 58 59 60 60 61 61 61 62 63 65 67 69 71 73 75 76 77 77 77 77 77 78 79 79 78 78 78 79 80 80 80 80 79 78 77 76 74 73 72 72 71
54 53 53 52 52 53 53 53 53 53 52 52 52 53 53 54 54 55 56 56 55 55 54 54 54 55 56 58 59 61 62 63 64 64 64 63 63 64 64 66 67 69 70 71 73 73 74 74 75 75 76 76 76 77 78 78 78 78 78 77 77 77 77 77 78 79 80 80 80
55 55 54 54 54 54 54 55 56 56 57 57 57 57 57 56 56 56 57 57 57 56 56 55 56 57 58 59 61 63 64 66 66 67 67 67 66 66 67 67 68 69 70 71 72 73 73 74 75 75 76 77 78 79 80 81 82 83 84 85 86 88 89 90 90 90 90 90 89
54 55 54 54 53 54 54 55 56 57 58 59 59 59 58 58 58 58 58 58 58 58 58 58 58 59 61 62 64 65 67 68 69 70 71 71 72 73 73 74 75 75 76 76 77 77 78 79 80 81 82 83 84 85 86 88 88 89 89 90 90 90 90 90 90 90 90 89 89
54 54 54 53 53 53 54 55 56 57 58 58 58 59 59 59 60 60 60 60 60 60 60 61 62 64 65 67 69 70 70 71 71 72 74 75 76 78 79 81 82 83 83 83 83 84 84 85 86 86 87 88 89 90 90 90 90 90 90 90 90 89 89 89 88 87 86 85 83
54 54 54 53 54 54 55 56 57 57 57 58 58 59 60 61 61 61 62 62 62 63 64 65 66 68 70 71 73 73 74 73 74 74 75 77 78 80 81 83 85 85 86 87 87 87 88 88 88 89 89 89 89 88 88 89 88 88 88 87 86 86 85 84 82 80 78 76 75
54 54 54 54 54 55 56 57 58 58 58 58 59 60 61 62 62 63 64 64 65 66 67 68 69 70 71 72 73 74 75 75 75 76 77 78 79 80 81 81 82 83 84 85 85 86 86 86 86 87 86 86 86 85 85 84 83 81 80 79 78 77 76 75 74 72 71 70 70
55 55 54 55 55 56 57 58 59 59 60 60 61 61 62 62 63 64 65 65 66 67 68 69 69 69 69 69 70 71 73 74 75 75 76 77 77 77 78 78 79 79 80 81 81 82 82 82 82 82 81 80 79 77 76 74 71 70 68 67 67 67 68 68 68 67 66 65 63
55 55 55 56 56 57 58 59 59 60 61 61 61 61 62 62 63 63 64 64 65 66 66 66 66 66 65 65 65 66 67 68 69 70 72 73 74 75 76 76 77 77 77 78 77 77 77 76 75 74 72 70 67 66 64 62 61 60 60 59 59 59 58 58 57 55 52 49 45
56 56 56 57 57 58 58 59 60 60 60 60 60 60 60 60 60 61 61 61 62 62 62 62 61 61 61 61 60 61 61 62 63 65 66 68 70 71 72 73 74 74 74 73 72 69 67 65 63 61 59 58 56 55 54 53 52 51 50 49 47 45 43 41 39 37 35 32 30
56 57 57 57 58 58 58 58 59 58 58 58 58 58 58 58 58 57 58 58 58 58 57 57 57 57 57 57 56 56 56 57 57 59 60 61 63 64 65 65 65 65 64 63 61 58 56 53 51 49 47 45 44 42 41 39 38 37 35 34 33 32 30 29 27 26 24 23 21